615  
ASUS41 KGYX 071010  
RWRGYX  
WEATHER ROUNDUP FOR MAINE AND NEW HAMPSHIRE  
NATIONAL WEATHER SERVICE GRAY ME  
600 AM EDT THU JUL 07 2022  
 
MEZ002-005-006-010-012-015-018-020-021-024-026-027-029-071100-  
MAINE  
 
CITY SKY/WX TMP DP RH WIND PRES REMARKS
 
PORTLAND MOCLDY 58 54 86 W3 30.03R  
SANFORD MOCLDY 56 55 97 CALM 30.04R  
BAR HARBOR CLEAR 51 50 96 CALM 30.03R  
WISCASSET CLEAR 51 49 92 CALM 30.04R  
ROCKLAND CLEAR 52 52 100 CALM 30.03R  
FRYEBURG CLEAR 52 50 93 CALM 30.05R  
LEWISTONAUBURN CLEAR 53 53 100 CALM 30.04  
AUGUSTA CLEAR 55 52 89 CALM 30.04R  
WATERVILLE CLEAR 54 52 93 CALM 30.02R  
BANGOR PTCLDY 53 50 89 CALM 30.03R  
GREENVILLE N/A 52 48 86 W3 30.02R  
MILLINOCKET MOCLDY 53 50 89 NW5 30.03R  
HOULTON SUNNY 44 43 96 CALM 29.99R  
PRESQUE ISLE SUNNY 44 44 100 CALM 30.01R  
FRENCHVILLE SUNNY 51 41 68 NW8 30.00R  
CARIBOU SUNNY 51 44 77 VRB5 29.99R  

 
 
NHZ002-005-008-009-011-012-014-071100-  
NEW HAMPSHIRE  
 
CITY SKY/WX TMP DP RH WIND PRES REMARKS
 
PORTSMOUTH MOCLDY 61 56 85 CALM 30.03R  
ROCHESTER CLOUDY 59 56 89 CALM 30.03R  
NASHUA MOCLDY 58 58 100 CALM 30.05R  
MANCHESTER MOCLDY 63 56 78 N3 30.03R  
CONCORD CLEAR 52 51 97 CALM 30.05R  
LACONIA PTCLDY 54 54 100 CALM 30.05R  
BERLIN FOG 45 43 93 CALM 30.08R VSB<1/4  
WHITEFIELD FOG 43 42 97 CALM 30.08R VSB 1/4  
JAFFREY CLOUDY 54 52 93 CALM 30.06R  
KEENE CLOUDY 54 54 100 CALM 30.07R  
LEBANON FOG 56 53 90 CALM 30.06R VSB 1/4  
MT WASHINGTON PTCLDY 43 21 42 W3 N/A  

 
 
VTZ005-007-008-071100-  
VERMONT  
 
CITY SKY/WX TMP DP RH WIND PRES REMARKS
 
MONTPELIER FOG 50 47 89 NE3 30.10S VSB 1/4  
BURLINGTON PTCLDY 56 53 90 E5 30.04R  

 
 
MAZ007-012-024-CTZ003-RIZ002-NYZ038-NYZ072-071100-  
SOUTHERN NEW ENGLAND AND NY  
 
CITY SKY/WX TMP DP RH WIND PRES REMARKS
 
BOSTON PTCLDY 66 57 72 N5 30.03R  
WORCESTER CLEAR 64 53 67 NE7 30.05R  
NANTUCKET CLEAR 61 59 93 CALM 30.03R  
PROVIDENCE PTCLDY 62 58 86 CALM 30.03R  
HARTFORD PTCLDY 60 55 83 N3 30.03R  
ALBANY PTCLDY 59 56 89 CALM 30.03R  
NEW YORK CITY MOCLDY 70 63 78 NE12 29.98R  

 
 
ANZ081-ANZ082-ANZ150-NHZ014-MEZ023>029-071100-  
COASTAL MARINE OBSERVATIONS  
 
STATION/POSITION TIME TEMP WIND PRES WAVE
 
AIR SEA DIR/SP/G HT/PER  
(UTC) (F) (DEG/KT/KT) (MB) (FT/S)  
MOUNT DESERT ROC 1000 60 320/ 8/ 8 1016.2R  
MATINICUS ROCK 0900 62 310/ 6/ 7 1016.1R  
ISLE OF SHOALS 0900 63 330/ 6/ 6 1015.7R  
JEFFREYS LEDGE 0926 63 N/A 3/ 6  
CASHES LEDGE BUO 0950 64 64 20/ 2/ 2 1015.9R 2/ 7  
GEORGES BANK BUO 0950 1017.4R 4/ 8  

 
   
............KEY...........
 
 
WCI - WIND CHILL  
TC - TEMPERATURE IN CELSIUS  
VSB - VISIBILITY
IN MILES  
HX - HEAT INDEX  
FAIR- INDICATES FEW OR NO CLOUDS BELOW 12,000 FT, WITH NO  
SIGNIFICANT WEATHER AND/OR S TO VISIBILITY.  
 
 
 
CLICK HERE TO GO TO PREVIOUS BULLETINS.

The Nexlab ME Page
The Nexlab NH Page Main Text Page